Lid_Strength_Index
20 19 18 16 15 16 16 16 15 15 14 14 13 13 13 13 13 12 12 11 11 11 10 9 9 8 8 7 6 6 6 6 7 10 12 12 12 12 14 13 14 14 13
21 20 18 16 16 16 16 16 15 15 14 14 14 14 13 14 13 15 14 13 12 12 10 10 9 9 8 8 8 8 7 6 8 10 13 14 14 14 15 15 15 15 15
22 21 20 20 17 17 17 16 15 15 15 14 13 14 14 13 13 13 14 13 13 11 10 11 11 10 9 9 9 9 8 9 9 10 13 14 15 15 15 15 16 16 16
22 22 22 22 17 17 17 16 16 15 15 15 14 14 14 13 12 13 15 14 13 12 11 11 12 11 11 10 10 10 9 10 10 10 12 14 15 15 15 16 17 18 18
24 24 23 22 19 20 17 16 16 15 15 15 15 14 14 13 12 13 15 14 15 14 12 12 12 12 10 10 10 11 11 11 11 12 13 14 14 16 16 16 16 17 17
24 24 24 23 22 21 21 21 20 20 21 20 21 20 19 16 13 13 15 17 16 15 15 14 12 12 12 11 10 11 10 12 12 12 13 13 13 14 14 16 17 17 17
22 21 20 20 19 19 19 19 20 21 20 21 21 20 19 19 13 13 14 18 18 17 15 15 14 13 13 13 12 11 11 11 11 12 12 13 14 15 15 17 18 17 18
19 19 18 18 18 18 18 20 20 19 19 18 18 18 17 16 13 13 14 16 16 16 16 15 15 15 14 14 14 14 13 12 12 13 13 14 13 13 15 17 17 20 20
18 18 18 18 18 18 18 19 19 18 18 18 16 17 17 16 14 13 14 16 16 16 15 15 15 15 13 13 14 15 15 14 13 11 10 10 11 12 13 15 17 18 19
17 17 17 17 18 19 19 18 18 18 17 17 17 17 16 17 15 14 13 16 17 17 16 16 14 14 13 13 15 15 17 17 16 16 16 15 15 14 14 16 17 18 19
16 16 17 17 18 18 18 18 19 19 18 19 18 18 18 17 16 14 14 14 16 17 16 17 17 15 13 13 13 16 16 15 16 19 18 19 19 18 18 18 18 19 20
17 17 18 19 18 18 20 21 21 21 21 21 21 19 18 17 15 14 14 14 14 17 17 17 17 14 14 14 15 14 15 16 20 21 21 21 20 19 20 20 19 20 20
19 19 20 20 19 19 21 21 22 22 22 21 19 19 18 17 18 14 14 14 14 16 17 16 14 13 13 15 14 13 17 20 22 24 23 22 22 22 22 22 22 23 24
19 19 20 21 20 21 19 19 20 21 21 20 20 19 19 19 18 19 18 19 16 17 16 18 16 16 15 16 19 17 19 19 21 22 22 21 22 23 24 23 24 24 25
19 19 18 19 20 20 19 19 19 19 18 20 19 19 20 21 19 15 17 20 21 17 19 23 23 22 22 21 21 21 21 22 22 22 23 22 22 23 23 24 24 26 26
21 20 19 19 19 20 20 20 16 15 15 15 14 16 20 16 15 15 15 15 15 14 20 22 23 22 20 20 20 20 22 22 22 22 24 24 24 24 24 24 25 27 28
22 21 20 20 19 19 21 21 21 21 15 14 14 14 14 14 15 15 15 14 14 15 19 20 19 19 20 20 18 20 21 20 20 20 21 22 23 24 24 24 25 26 25
22 21 20 20 19 19 18 19 20 24 25 23 18 16 16 15 15 15 16 16 21 21 25 22 20 22 20 22 23 24 22 21 21 22 22 23 22 24 25 24 24 25 24
21 20 20 20 19 18 19 19 20 20 21 21 22 20 21 18 18 18 17 21 22 23 24 24 23 24 25 25 25 26 27 27 25 24 24 23 21 21 21 21 21 21 21
20 20 20 21 20 20 20 20 20 20 21 21 22 22 22 22 22 22 22 22 22 22 22 22 22 22 22 23 22 22 22 21 21 20 20 20 21 21 21 22 22 23 23
20 21 21 22 21 22 23 22 22 22 22 22 22 22 19 22 22 22 22 22 22 22 22 22 22 22 22 21 21 21 21 21 22 22 22 23 23 26 27 27 27 28 28
21 21 23 25 25 25 25 25 25 25 24 23 23 22 20 22 22 22 22 22 22 21 21 21 21 21 21 22 23 23 23 24 25 26 27 28 28 27 27 27 27 27 28
23 25 25 25 25 25 26 25 25 25 24 24 24 24 24 24 23 23 23 23 23 23 23 24 24 25 26 27 27 28 28 27 26 28 28 30 31 31 32 32 33 32 33
26 27 28 29 28 28 29 30 31 29 30 30 30 29 26 25 25 25 24 24 25 25 25 25 25 25 27 28 29 29 29 29 31 30 32 33 32 33 33 32 31 31 31
29 29 30 30 32 32 31 31 31 33 33 32 31 31 32 29 27 28 27 27 27 27 27 28 27 28 27 29 30 32 32 26 31 32 33 32 31 31 30 29 29 29 29
31 31 32 33 32 33 34 32 31 31 31 30 31 31 30 30 29 29 28 29 29 29 29 30 29 29 30 29 30 28 28 24 26 26 29 29 27 26 25 25 25 24 24